Airfield :







YOU CAN JOIN US ON...

 
LOGIN :

Register | Disclaimer

   EN    FR    IT 

 









Legend :    VFR   Marginal VFR   IFR   Intensive IFR   Very Intensive IFR
Visi :
Ceiling :
>= 8 km
>= 3000ft
5 to 8 km
1000 to 3000 ft
1500m to 5 km
500 to 1000 ft
800 to 1500m
200 to 500 ft
< 800m
< 200 ft
Symbols :   Thunderstorms  Fog  Heavy snow  Heavy precipitations  Wind > 20 kt






- Airport Elevation : 1040 ft


KAFN - Jaffrey Silver Ranch

CURRENT METAR :
  • 220752Z AUTO 19003KT 8SM BKN023 14/13 A3022 RMK AO2 SLP237 T01390133

EXPIRED METARs :
  • 220652Z AUTO 00000KT 10SM CLR 16/14 A3021 RMK AO2 SLP234 T01610144
  • 220552Z AUTO 24004KT 10SM FEW020 17/15 A3022 RMK AO2 SLP236 T01670150 10183 20167 50003

TAF N/A
KZBW FIR / North America



MET'MAP, your aeronautical weather chart ! - Copyright ORBIFLY December 2007 - Disclaimer

ORBIFLY MET'MAP TEAM :

Programming & Development : Alexandra Zaïnal
Concept & original design : Baudouin d'Aumeries
Assistance for programming : Marc-Olivier Méhu
Technical & hardware support : Manuel Goepfert

Contact : metmap@orbifly.com




SOURCES & CREDITS :

   NOAA